Norfork Lake Weather Center

Moon Phase Calendar



Norfork Lake Water Level
Online Cameras

 


      

Current Conditions in Baxter
12/3/2021 4:53:22 AM

52°F
Feels Like 50
Clear
Humidity
72%
Pressure
30"
Wind
2.3 mph (WSW)
Dew Point
43°F
UV Index
0/10 (Low)
Visibility
6 mi

Hourly Forecast

Date & Time Fri, Dec 3
4:00 AM
Fri, Dec 3
5:00 AM
Fri, Dec 3
6:00 AM
Fri, Dec 3
7:00 AM
Fri, Dec 3
8:00 AM
Fri, Dec 3
9:00 AM
Fri, Dec 3
10:00 AM
Fri, Dec 3
11:00 AM
Fri, Dec 3
12:00 PM
Fri, Dec 3
1:00 PM
Fri, Dec 3
2:00 PM
Fri, Dec 3
3:00 PM
Fri, Dec 3
4:00 PM
Fri, Dec 3
5:00 PM
Fri, Dec 3
6:00 PM
Fri, Dec 3
7:00 PM
Fri, Dec 3
8:00 PM
Fri, Dec 3
9:00 PM
Fri, Dec 3
10:00 PM
Fri, Dec 3
11:00 PM
Sat, Dec 4
12:00 AM
Sat, Dec 4
1:00 AM
Sat, Dec 4
2:00 AM
Sat, Dec 4
3:00 AM
Sat, Dec 4
4:00 AM
Sat, Dec 4
5:00 AM
Sat, Dec 4
6:00 AM
Sat, Dec 4
7:00 AM
Sat, Dec 4
8:00 AM
Sat, Dec 4
9:00 AM
Sat, Dec 4
10:00 AM
Sat, Dec 4
11:00 AM
Sat, Dec 4
12:00 PM
Sat, Dec 4
1:00 PM
Sat, Dec 4
2:00 PM
Sat, Dec 4
3:00 PM
Sat, Dec 4
4:00 PM
Sat, Dec 4
5:00 PM
Sat, Dec 4
6:00 PM
Sat, Dec 4
7:00 PM
Sat, Dec 4
8:00 PM
Sat, Dec 4
9:00 PM
Sat, Dec 4
10:00 PM
Sat, Dec 4
11:00 PM
Sun, Dec 5
12:00 AM
Sun, Dec 5
1:00 AM
Sun, Dec 5
2:00 AM
Sun, Dec 5
3:00 AM
Condition
Clear

Clear

Clear

Clear

Clear

Clouds

Clouds

Clouds

Clouds

Clouds

Clouds

Clouds

Clouds

Clouds

Clouds

Clouds

Clouds

Clouds

Clouds

Clouds

Clouds

Clouds

Clouds

Clouds

Clouds

Clouds

Clouds

Clouds

Clouds

Clouds

Clouds

Clouds

Clouds

Clouds

Clouds

Clouds

Clouds

Clouds

Clouds

Clouds

Clouds

Clouds

Clouds

Clouds

Clouds

Clouds

Clouds

Clouds
Temperature 52°F52°F52°F52°F53°F58°F65°F69°F72°F73°F74°F74°F69°F65°F62°F61°F60°F59°F58°F58°F57°F57°F56°F55°F54°F52°F51°F50°F51°F54°F55°F56°F57°F59°F60°F60°F59°F57°F56°F54°F52°F51°F50°F49°F48°F49°F49°F49°F
Feels Like 50°F50°F50°F50°F51°F57°F63°F68°F71°F72°F73°F73°F69°F65°F62°F61°F60°F59°F58°F58°F57°F56°F56°F55°F53°F51°F50°F49°F50°F52°F53°F54°F55°F57°F58°F58°F57°F55°F54°F53°F50°F49°F48°F47°F46°F47°F47°F47°F
Cloudiness 0%0%0%1%3%14%28%34%43%92%96%97%98%98%96%100%69%78%84%87%89%100%100%100%100%99%100%99%98%97%98%98%98%100%100%100%100%100%100%100%96%93%95%90%88%72%66%65%
Visibility 6 mi6 mi6 mi6 mi6 mi6 mi6 mi6 mi6 mi6 mi6 mi6 mi6 mi6 mi6 mi6 mi6 mi6 mi6 mi6 mi6 mi6 mi6 mi6 mi6 mi6 mi6 mi6 mi6 mi6 mi6 mi6 mi6 mi6 mi6 mi6 mi6 mi6 mi6 mi6 mi6 mi6 mi6 mi6 mi6 mi6 mi6 mi6 mi
Precipitation 0%0%0%0%0%0%0%0%0%0%0%0%0%0%0%0%0%0%0%0%0%0%0%0%0%0%0%0%0%0%0%0%0%9%4%5%7%7%5%2%2%2%0%0%0%19%15%21%
Humidity 71%72%73%73%70%60%51%46%43%43%45%50%61%71%80%86%90%90%90%91%92%94%94%93%87%83%81%81%76%65%60%57%56%54%53%54%57%61%63%64%67%69%71%74%78%80%84%86%
Dew Point 43°F43°F43°F43°F43°F44°F46°F47°F48°F50°F51°F54°F55°F55°F56°F57°F57°F56°F55°F55°F55°F55°F54°F53°F50°F47°F46°F45°F44°F42°F41°F41°F41°F42°F43°F43°F44°F44°F43°F42°F42°F41°F41°F41°F42°F43°F44°F45°F
Pressure 30"30"30"30"30"30"30"29.97"29.94"29.91"29.91"29.88"29.91"29.91"29.94"29.97"29.97"30"30"30"30"30"30.03"30.03"30.06"30.06"30.09"30.12"30.15"30.15"30.18"30.15"30.12"30.09"30.09"30.09"30.09"30.09"30.09"30.09"30.09"30.09"30.06"30.06"30.03"30"29.97"29.97"
Wind Speed 2.6 mph2.3 mph2.4 mph2.8 mph2.6 mph2.8 mph3.5 mph4.1 mph4.5 mph4.4 mph4.3 mph3.7 mph2 mph3.7 mph4 mph3.5 mph3.9 mph3.8 mph3.7 mph3.4 mph3.4 mph3.2 mph3.4 mph4.8 mph5.9 mph5.9 mph4.8 mph4.7 mph5.8 mph8.3 mph8.1 mph7.2 mph7.1 mph6.9 mph6.9 mph6.4 mph6 mph6.1 mph7.2 mph8 mph7 mph6.6 mph6.4 mph5.3 mph5.6 mph4.7 mph4.9 mph5.4 mph
Wind
Direction
236°
SW
237°
WSW
212°
SSW
199°
SSW
194°
SSW
202°
SSW
206°
SSW
201°
SSW
210°
SSW
220°
SW
221°
SW
219°
SW
205°
SSW
179°
S
202°
SSW
234°
SW
286°
WNW
316°
NW
326°
NW
341°
NNW
342°
NNW
342°
NNW
352°
N
12°
NNE
20°
NNE
26°
NNE
29°
NNE
37°
NE
48°
NE
59°
ENE
68°
ENE
74°
ENE
75°
ENE
85°
E
91°
E
94°
E
95°
E
96°
E
111°
ESE
103°
ESE
104°
ESE
100°
E
109°
ESE
126°
SE
114°
ESE
127°
SE
134°
SE
137°
SE

Daily Forecast

Date High Low Precip. Humidity
Today
Dec 3

Clouds
74 °F
52 °F
0%
46%
Saturday
Dec 4

Clouds
60 °F
50 °F
9%
57%
Sunday
Dec 5

Rain
66 °F
48 °F
100%
82%
Monday
Dec 6

Rain
59 °F
34 °F
100%
33%
Tuesday
Dec 7

Clouds
44 °F
31 °F
4%
47%
Wednesday
Dec 8

Rain
59 °F
44 °F
78%
70%
Thursday
Dec 9

Clouds
66 °F
53 °F
47%
58%
Friday
Dec 10

Clouds
69 °F
46 °F
0%
54%
Saturday
Dec 11

Rain
72 °F
64 °F
100%
78%
Sunday
Dec 12

Rain
43 °F
25 °F
100%
43%
Monday
Dec 13

Clear
48 °F
27 °F
0%
40%
Tuesday
Dec 14

Clear
54 °F
30 °F
0%
39%
Wednesday
Dec 15

Clouds
66 °F
41 °F
0%
67%
Thursday
Dec 16

Rain
67 °F
62 °F
88%
83%
Friday
Dec 17

Rain
56 °F
47 °F
100%
88%
Saturday
Dec 18

Rain
60 °F
48 °F
42%
97%

Temperature 8-14 Day Outlook



Precipitation 8-14 Day Outlook




Quick Links
Norfork Lake News
Norfork Lake Photos
Norfork Lake Videos




About Us
Contact Us
Site Map
Search Site
Advertise With Us
   
Norfork.USLakes.info
THE NORFORK LAKE WEBSITE

Copyright 2021, Lakes Online
Privacy    |    Legal